Dauntless Aviation
Airports South America Argentina
SABE
AEP

Aeroparque Jorge Newbery

Buenos Aires, ARGENTINA

Airport Info
Suggest Updated Information for this Airport

Location

Latitude / Longitude: 34°33'33"S / 58°24'56"W
  34°33.552'S / 58°24.936'W
  -34.5592 / -58.4156

Nearby radio navigation aids

FDO SAN FERNANDO VOR/DME. 132.7° 10.6nm from FDO to field.
OP AEROPARQUE JORGE NEWBERY NDB. 131.1° 4.3nm from OP to field.

Runway Information

Runway 13 /31

Dimensions: 6890 x 131 ft.
Surface: ASP
 
Runway 13
Runway 31
Latitude: -34.553942 -34.563844
Longitude: -58.425247 -58.407506
Elevation: 18 ft. 18 ft.
Runway true heading: 126.3 306.3
 

Instrument Procedures

  Aerodrome Chart

STARs (Standard Terminal Arrivals)

  STAR Rwy 13/16 SARGO7C KOVUK7C TENIL7C BELGRANO7C
  STAR Rwy 13/16 PAGON7C SAN ANTONIO7C ASADA7C VALOS8C
  STAR Rwy 13/16 SURBO7A KUKEN1C PAPIX1C
  STAR Rwy 31 SURBO2B SARGO7D KOVUK7D TENIL7D BELGRANO7D VALOS7D ASADA7D
  STAR Rwy 31 PAGON7D SAN ANTONIO7D

IAPs (Instrument Approach Procedures)

  VOR (DME) ILS Rwy 13
  VOR (DMS) ILS (DME) Rwy 13
  LI ILS (DME) Rwy 13
  VOR (DME) LO LI Rwy 13
  LI LO LI Rwy 13
  LI Rwy 31
  LI Rwy 31

Departure Procedures

  SID Rwy 13/31 LANDA3B VIBAM38 ATOVO38
  SID Rwy 13/31 EZEIZA8
  SID Rwy 13/31 EL PALOMAR 8
  SID Rwy 13/31 KUKEN7 SURBO7 DORVO7 LA PLAYA7
Satellite photo at:
Airport distance calculator
From:
Weather Reports

METAR

SABE

SABE 242000Z 04005KT 350V090 CAVOK 15/06 Q1026
SADF
10.6nm W
SADF 242000Z 20004KT CAVOK 16/01 Q1026
SAEZ
16.2nm S
SAEZ 242000Z 18005KT 120V240 CAVOK 17/03 Q1026

TAF

SABE
TAF SABE 241700Z 2418/2518 20005KT CAVOK TX19/2518Z TN07/2510Z BECMG 2420/2422 VRB03KT BECMG 2423/2501 09002KT BECMG 2508/2510 36003KT
SADF
10.6nm W
TAF SADF 241700Z 2418/2518 18005KT CAVOK TX17/2518Z TN07/2509Z BECMG 2422/2500 09005KT BECMG 2506/2508 VRB03KT BECMG 2513/2515 02005KT
SAEZ
16.2nm S
TAF SAEZ 241700Z 2418/2518 VRB03KT CAVOK TX17/2518Z TN07/2510Z BECMG 2423/2502 05010KT
SUCA
30.3nm NE
SUCA 241730Z 2418/2518 18010G20KT 9999 SCT020 BKN200 TX16/2518Z TN07/2510Z BECMG 2423/2501 16005KT CAVOK PROB30 TEMPO 2508/2510 5000 BR NSC
Safelog

 

Dauntless Aviation

© 2007-2016 Dauntless Aviation, all rights reserved
Information provided via PilotNav comes from a variety of official and unofficial data sources. As errors are possible, do not use PilotNav for primary flight planning purposes. Verify any information that you receive via PilotNav with current and canonical charts and other official documents. The material in this database is subject to database copyrights held by Dauntless Aviation and may not be copied without the express permission of Dauntless Aviation - licenses for use of part of all of this data are available for purchase; enquire via the Dauntless Aviation helpdesk. A number of mechanisms and markers exist in the database to protect against and identify infringement / copyright. Automated queries against this website are stictly prohibited, and all activity is logged and analyzed.